User: anonymous   Login
Location: Unspecified
(0.0000°N, 0.0000°E)
Time: 08:57:23
(UTC+00:00)
Language:

MAST - Orbit

View from above orbital plane
View from above orbital plane
View from above satellite
View from above satellite

Ground track
Ground track

The orbit data is extracted from the following two-line orbital elements,

1 31126U 07012K   17204.70085910 +.00000077 +00000-0 +26455-4 0  9997
2 31126 098.0638 154.0501 0091633 064.4952 296.5688 14.56540701545198
Epoch (UTC): 23 July 2017 16:49:14
Eccentricity: 0.0091633
inclination: 98.0638°
perigee height: 639 km
apogee height: 769 km
right ascension of ascending node: 154.0501°
argument of perigee: 64.4952°
revolutions per day: 14.56540701
mean anomaly at epoch: 296.5688°
orbit number at epoch: 54519

The dashed part of the orbit path shows where the satellite is in the earth's shadow,  

DLR